Regional Weather Roundup
Issued by NWS

Home | Current Version | Previous Version | Graphics & Text | Print | Product List | Glossary On
Versions: 1 2 3 4 5 6 7 8 9 10 11 12 13 14 15 16 17 18 19 20 21 22 23 24 25 26 27 28 29 30 31 32 33 34 35 36 37 38 39 40 41 42 43 44 45 46 47 48 49 50
000
ASUS43 KMKX 301159
RWRWI

WISCONSIN REGIONAL WEATHER ROUNDUP
NATIONAL WEATHER SERVICE MILWAUKEE/SULLIVAN WI
600 AM CST FRI JAN 30 2015

NOTE: "FAIR" INDICATES FEW OR NO CLOUDS BELOW 12,000 FEET WITH NO
SIGNIFICANT WEATHER AND/OR OBSTRUCTIONS TO VISIBILITY.

WIZ001-002-006>008-014>016-023>028-301300-
NORTHWEST WISCONSIN

CITY           SKY/WX    TMP DP  RH WIND       PRES   REMARKS
SUPERIOR ARPT  PTCLDY     1  -3  81 W5        30.53R WCI  -8
ASHLAND        CLOUDY    10   3  73 W5        30.50S WCI   2
6HR MIN TEMP:  10; 6HR MAX TEMP:  14;

HAYWARD        MOCLDY    -3  -8  79 CALM      30.47S
6HR MIN TEMP:  -3; 6HR MAX TEMP:   7;

SIREN          PTCLDY     1  -3  84 CALM      30.51F
CUMBERLAND     PTCLDY     0  -4  85 CALM      30.48S
RICE LAKE      PTCLDY     1  -2  87 CALM      30.51S
CHETEK         PTCLDY     1  -2  86 CALM      30.50S
LADYSMITH      CLOUDY     6   2  81 CALM      30.48S
EAU CLAIRE     NOT AVBL
MENOMONIE      MOCLDY     8   2  77 CALM      30.52S
NEW RICHMOND   PTCLDY     4   1  86 CALM      30.51F
OSCEOLA        PTCLDY     7   3  85 CALM      30.54F
$$

WIZ003>005-009-010-017-018-301300-
NORTH CENTRAL WISCONSIN

CITY           SKY/WX    TMP DP  RH WIND       PRES   REMARKS
MANITOWISH WTR CLOUDY     9   4  77 N3        30.40S
ARBOR VITAE    CLOUDY    11   4  73 NW8       30.40S WCI   0
WOODRUFF       CLOUDY    11   4  73 NW8       30.40S WCI   0
RHINELANDER    CLOUDY    10   3  73 NW8       30.40R WCI  -2
6HR MIN TEMP:  10; 6HR MAX TEMP:  14;

EAGLE RIVER    CLOUDY    10   2  72 NW3       30.39S
LAND O LAKES   FLURRIES  10   4  79 NW5       30.40R WCI   1
PHILLIPS       CLOUDY    10   3  74 N3        30.41F
TOMAHAWK       CLOUDY    11   4  72 CALM      30.42S
MEDFORD        CLOUDY     8   3  79 W5        30.42S WCI   0
MERRILL        CLOUDY    13   4  69 NW5       30.43S WCI   5
$$

WIZ029-030-035-036-043>047-301300-
CENTRAL WISCONSIN

CITY           SKY/WX    TMP DP  RH WIND       PRES   REMARKS
WAUSAU         CLOUDY    13   4  67 NW6       30.43S WCI   4
6HR MIN TEMP:  13; 6HR MAX TEMP:  17;

MOSINEE        PTCLDY     9   1  72 NW5       30.44S WCI   0
MARSHFIELD     PTCLDY     6   0  76 NW7       30.45S WCI  -6
6HR MIN TEMP:   6; 6HR MAX TEMP:  16;

STEVENS POINT  CLEAR     11   2  66 NW6       30.46R WCI   2
WAUPACA        CLOUDY    19   6  58 NW8       30.47R WCI   8
WAUTOMA        NOT AVBL
WISC RAPIDS    PTCLDY    11   2  67 NW8       30.48R WCI  -1
6HR MIN TEMP:  11; 6HR MAX TEMP:  20; 6HR PCP: TRACE;

CAMP DOUGLAS   NOT AVBL
$$

WIZ011>013-019>022-031-037>040-048>050-301300-
NORTHEAST WISCONSIN

CITY           SKY/WX    TMP DP  RH WIND       PRES   REMARKS
ANTIGO         CLOUDY    11   4  72 NW7       30.40S WCI   0
SHAWANO        CLOUDY    17   5  58 NW7       30.47R WCI   8
OCONTO         CLOUDY    15   4  61 CALM      30.48R
STURGEON BAY   PTCLDY    12   1  62 N8        30.48R WCI   1
6HR MIN TEMP:  12; 6HR MAX TEMP:  16;

GREEN BAY      CLOUDY    15   6  67 N5        30.48R WCI   8
6HR MIN TEMP:  14; 6HR MAX TEMP:  21;

MANITOWOC      NOT AVBL
APPLETON       CLOUDY   N/A N/A N/A NW7       30.46R
CLINTONVILLE   CLOUDY    18   5  57 NW6       30.47R WCI   9
OSHKOSH        CLEAR     15   3  59 N8        30.47R WCI   4
6HR MIN TEMP:  15; 6HR MAX TEMP:  22;

$$

WIZ032>034-041-042-053>061-301300-
SOUTHWEST WISCONSIN

CITY           SKY/WX    TMP DP  RH WIND       PRES   REMARKS
LA CROSSE      CLEAR     12   4  70 N3        30.54S
6HR MIN TEMP:  10; 6HR MAX TEMP:  20;

SPARTA         CLEAR      9   3  78 CALM      30.53R
VIROQUA        CLEAR     10   5  82 NW6       30.48R WCI   0
BOSCOBEL       CLEAR     14   6  70 NW3       30.54R
6HR MIN TEMP:  14; 6HR MAX TEMP:  25;

PRAIRIE DU CHI CLEAR     16   8  72 NW3       30.54R
PLATTEVILLE    CLEAR     15   9  75 NW8       30.48S WCI   4
$$

WIZ056-057-062-063-064-067-068-301300-
SOUTH CENTRAL WISCONSIN

CITY           SKY/WX    TMP DP  RH WIND       PRES   REMARKS
REEDSBURG      CLEAR     13   6  72 W5        30.49R WCI   5
BARABOO/DELLS  CLEAR     13   5  72 CALM      30.48R
LONE ROCK      NOT AVBL
MINERAL POINT  CLEAR     16   9  73 NW5       30.47R WCI   9
MADISON        CLEAR     14   6  70 CALM      30.49R
6HR MIN TEMP:  13; 6HR MAX TEMP:  26;

MIDDLETON      CLEAR     16   7  69 NW5       30.49R WCI   8
WATERTOWN      MOCLDY    15   6  69 N5        30.46S WCI   7
MONROE         CLEAR     18  10  73 NW7       30.46R WCI   8
JANESVILLE     CLEAR     18   9  68 N5        30.48R WCI  11
$$

WIZ051-052-058>065-066-070>072-301300-
SOUTHEAST WISCONSIN

CITY           SKY/WX    TMP DP  RH WIND       PRES   REMARKS
MILWAUKEE      PTCLDY    19   8  62 NW10      30.47R WCI   7
6HR MIN TEMP:  19; 6HR MAX TEMP:  26;

WAUKESHA       CLEAR     14   5  67 NW6       30.47R WCI   5
MILWAUKEE/TIMM CLEAR     18   9  68 NW8       30.47R WCI   7
RACINE         CLEAR     19   9  65 NW7       30.48R WCI  10
6HR MIN TEMP:  19; 6HR MAX TEMP:  26;

BURLINGTON     CLEAR     16   5  61 N9        30.47R WCI   5
KENOSHA        CLEAR     18   9  68 NW9       30.47R WCI   7
6HR MIN TEMP:  18; 6HR MAX TEMP:  27;

FOND DU LAC    FLURRIES  13   3  64 NW7       30.47R WCI   3
6HR MIN TEMP:  11; 6HR MAX TEMP:  22; 6HR PCP: TRACE;

SHEBOYGAN      PTCLDY    16   6  65 N7        30.46R WCI   6
6HR MIN TEMP:  16; 6HR MAX TEMP:  22; 6HR PCP: TRACE;

WEST BEND      CLOUDY    16   9  73 NW3       30.45R
JUNEAU         CLEAR     13   4  70 NW3       30.47R
$$

LSZ147-162-301300-
LAKE SUPERIOR

STATION/POSITION TIME  TEMP    WIND        PRES    WAVE
                       AIR SEA DIR/SP/G            HT/PER
                 (UTC) (F)     (DEG/KT/KT) (MB)    (FT/S)
DEVILS ISLAND    1100   12     290/  8/  9 1034.5F
PORT WING        1140   11     310/  5/ 10 1032.8F
SAXON HARBOR     1100   14        CALM     1032.5S
$$

LMZ867-665-643>646-301300-
LAKE MICHIGAN

STATION/POSITION TIME  TEMP    WIND        PRES    WAVE
                       AIR SEA DIR/SP/G            HT/PER
                 (UTC) (F)     (DEG/KT/KT) (MB)    (FT/S)
NORTHPORT PIER   1109   15     320/ 15/ 24 1031.2R
SISTER BAY       1113   12     340/ 16/ 18   N/A
KEWAUNEE LAKESHO 1100   15     360/  7/ 11 1030.4R
SHEBOYGAN LAKESH 1100   19     360/ 15/ 20 1032.5R
PORT WASHINGTON  1140   20     350/  6/ 10 1032.5R
MILWAUKEE LAKESH 1100   21     320/  7/ 10   N/A
KENOSHA   LAKESH 1100   22     340/ 14/ 19 1030.5R
$$

TC  - TEMPERATURE IN CELSIUS
VSB - VISIBILITY IN STATUTE MILES
WCI - WIND CHILL INDEX
HX  - HEAT INDEX



USA.gov is the U.S. government's official web portal to all federal, state and local government web resources and services.